Location: Baia Mare
(47.6567°N, 23.5850°E)
Time: 07:03:39
(UTC+02:00)

N. Korean satellite - Visible Passes

Search period start: 27 January 2022 00:00
Search period end: 06 February 2022 00:00
Orbit: 447 x 490 km, 97.3° (Epoch: 26 January)

Date Brightness Start Highest point End Pass type
(mag) Time Alt. Az. Time Alt. Az. Time Alt. Az.
27 Jan 6.6 05:43:36 10° NNE 05:47:15 79° E 05:48:42 35° S visible
27 Jan 8.6 07:19:22 10° NW 07:19:48 10° WNW 07:20:15 10° WNW visible
27 Jan 9.8 17:55:13 10° WSW 17:57:07 14° W 17:59:04 10° WNW visible
28 Jan 8.2 05:14:36 10° NNE 05:17:58 34° E 05:19:38 22° SE visible
28 Jan 7.9 06:48:13 10° NNW 06:50:53 20° WNW 06:53:33 10° WSW visible
29 Jan 9.5 04:46:08 10° NE 04:48:32 17° E 04:50:35 11° SE visible
29 Jan 7.0 06:18:25 10° N 06:21:50 39° WNW 06:24:38 14° SW visible
30 Jan 6.4 05:49:00 10° NNE 05:52:40 89° W 05:55:38 15° SSW visible
30 Jan 10.0 18:01:03 10° WSW 18:02:33 12° W 18:04:03 10° WNW visible
31 Jan 7.9 05:19:53 10° NNE 05:23:20 39° E 05:26:42 10° SSE visible
31 Jan 8.1 06:53:44 10° NNW 06:56:11 17° WNW 06:58:38 10° WSW visible
01 Feb 9.3 04:51:14 10° NE 04:53:52 19° E 04:56:30 10° SE visible
01 Feb 7.2 06:23:47 10° N 06:27:07 34° WNW 06:30:24 10° SW visible
02 Feb 6.4 05:54:16 10° N 05:57:54 77° WNW 06:01:30 10° SSW visible
02 Feb 10.3 18:06:56 10° WSW 18:07:49 11° W 18:08:43 10° WNW visible
03 Feb 7.6 05:25:03 10° NNE 05:28:34 45° E 05:32:01 10° S visible
03 Feb 8.2 06:59:09 10° NNW 07:01:20 15° WNW 07:03:31 10° W visible
04 Feb 9.1 04:56:15 10° NE 04:59:05 21° E 05:01:52 10° SE visible
04 Feb 7.4 06:29:02 10° N 06:32:14 30° WNW 06:35:25 10° SW visible
05 Feb 10.1 04:29:12 10° E 04:29:26 10° E 04:29:42 10° E visible
05 Feb 6.4 05:59:24 10° N 06:03:01 66° WNW 06:06:34 10° SSW visible
